Main page
METAR-TAF:

METAR-TAF

Airports :

Alpine, Texas, United States

Alpine–Casparis Municipal Airport

latitude: 30-23-03N, longitude: 103-41-00W, elevation: 1376 m

Current weather observation

The report was made 29 minutes ago, at 20:15 UTC
Wind 8 kt from the East
Temperature 38°C
Humidity 15%
Pressure 1016 hPa
Visibility: 16.1 km
Clear sky

METAR: KE38 232015Z AUTO 10008KT 10SM CLR 38/07 A3001 RMK AO2 T03750070

Time: 15:44 (20:44 UTC)


TAF: missing

Weather observations and forecasts of more than 4000 airports (METAR and TAF reports).

The available stations are represented by yellow and red dots on the map.

Hover mouse over dot to see the name of the station.

Then click to see weather observations and forecasts.

To change the map : click on the green buttons with a black cross to zoom in, on the green button with a dash to zoom out, or on the green arrows for adjacent maps.


METAR-TAF: